�������l�o���
Date,Time,MP-1(��Sv/h),MP-2(��Sv/h),MP-3(��Sv/h),MP-4(��Sv/h),MP-5(��Sv/h),MP-6(��Sv/h),MP-7(��Sv/h),MP-8(��Sv/h),����,����(m/s),���J
2017/11/04,00:00,0.909,1.449,0.911,1.710,1.176,0.501,0.909,0.846,��쐼,2.3,��
2017/11/04,00:10,0.908,1.452,0.910,1.711,1.176,0.502,0.908,0.847,�쐼,3.3,��
2017/11/04,00:20,0.909,1.449,0.913,1.715,1.177,0.502,0.910,0.846,�쐼,2.6,��
2017/11/04,00:30,0.911,1.449,0.908,1.716,1.173,0.501,0.908,0.847,���쐼,1.7,��
2017/11/04,00:40,0.910,1.449,0.911,1.712,1.175,0.501,0.910,0.846,���쐼,3.3,��
2017/11/04,00:50,0.907,1.450,0.912,1.715,1.176,0.499,0.909,0.846,�쐼,4.2,��
2017/11/04,01:00,0.912,1.450,0.912,1.712,1.175,0.501,0.909,0.846,��,2.0,��
2017/11/04,01:10,0.910,1.450,0.910,1.713,1.174,0.502,0.909,0.846,��,1.7,��
2017/11/04,01:20,0.911,1.449,0.913,1.714,1.175,0.501,0.910,0.847,�쐼,1.5,��
2017/11/04,01:30,0.911,1.450,0.910,1.714,1.175,0.502,0.908,0.846,�쐼,3.1,��
2017/11/04,01:40,0.911,1.450,0.913,1.713,1.177,0.502,0.909,0.845,���쐼,3.8,��
2017/11/04,01:50,0.909,1.452,0.912,1.713,1.173,0.500,0.909,0.846,�쐼,3.3,��
2017/11/04,02:00,0.909,1.448,0.912,1.716,1.175,0.502,0.909,0.846,�쐼,3.1,��
2017/11/04,02:10,0.908,1.451,0.911,1.715,1.174,0.501,0.910,0.846,�쐼,3.0,��
2017/11/04,02:20,0.909,1.452,0.913,1.716,1.174,0.500,0.909,0.847,��,3.8,��
2017/11/04,02:30,0.909,1.450,0.913,1.714,1.175,0.502,0.909,0.846,��,5.1,��
2017/11/04,02:40,0.911,1.451,0.913,1.714,1.175,0.502,0.910,0.845,��,5.9,��
2017/11/04,02:50,0.910,1.451,0.910,1.717,1.175,0.503,0.908,0.848,���쐼,3.7,��
2017/11/04,03:00,0.911,1.448,0.912,1.714,1.173,0.503,0.909,0.847,���쐼,3.7,��
2017/11/04,03:10,0.910,1.451,0.910,1.714,1.175,0.501,0.909,0.845,��,3.5,��
2017/11/04,03:20,0.910,1.451,0.913,1.715,1.174,0.501,0.908,0.845,���쐼,2.5,��
2017/11/04,03:30,0.912,1.454,0.913,1.713,1.174,0.503,0.909,0.846,���쐼,4.6,��
2017/11/04,03:40,0.911,1.450,0.914,1.712,1.177,0.503,0.909,0.846,���쐼,5.1,��
2017/11/04,03:50,0.911,1.449,0.914,1.714,1.173,0.501,0.907,0.847,���쐼,5.4,��
2017/11/04,04:00,0.913,1.449,0.914,1.716,1.175,0.502,0.909,0.847,���쐼,6.3,��
2017/11/04,04:10,0.909,1.451,0.912,1.716,1.173,0.502,0.909,0.846,��,7.4,��
2017/11/04,04:20,0.910,1.451,0.912,1.716,1.175,0.502,0.910,0.847,���쐼,6.5,��
2017/11/04,04:30,0.910,1.450,0.910,1.714,1.174,0.504,0.910,0.848,���쐼,6.4,��
2017/11/04,04:40,0.912,1.452,0.912,1.716,1.174,0.503,0.910,0.847,���쐼,6.4,��
2017/11/04,04:50,0.912,1.452,0.911,1.716,1.175,0.502,0.909,0.847,���쐼,6.9,��
2017/11/04,05:00,0.912,1.454,0.915,1.714,1.175,0.503,0.912,0.847,���쐼,6.1,��
2017/11/04,05:10,0.911,1.453,0.913,1.715,1.174,0.502,0.910,0.846,��,6.1,��
2017/11/04,05:20,0.912,1.451,0.913,1.717,1.175,0.502,0.911,0.848,���쐼,6.0,��
2017/11/04,05:30,0.912,1.452,0.914,1.720,1.176,0.502,0.910,0.845,���쐼,6.6,��
2017/11/04,05:40,0.911,1.451,0.914,1.716,1.172,0.502,0.909,0.849,���쐼,6.6,��
2017/11/04,05:50,0.911,1.452,0.912,1.720,1.175,0.503,0.911,0.847,�쐼,6.8,��
2017/11/04,06:00,0.911,1.451,0.914,1.716,1.173,0.502,0.910,0.848,���쐼,6.3,��
2017/11/04,06:10,0.910,1.454,0.914,1.715,1.174,0.501,0.909,0.847,���쐼,5.4,��
2017/11/04,06:20,0.910,1.452,0.914,1.716,1.175,0.502,0.911,0.847,���쐼,5.2,��
2017/11/04,06:30,0.910,1.449,0.911,1.717,1.175,0.503,0.909,0.849,���쐼,5.2,��
2017/11/04,06:40,0.910,1.452,0.914,1.715,1.176,0.501,0.910,0.846,���쐼,4.2,��
2017/11/04,06:50,0.909,1.451,0.913,1.714,1.175,0.503,0.911,0.849,��,3.5,��
2017/11/04,07:00,0.912,1.450,0.912,1.715,1.173,0.503,0.911,0.847,��,3.6,��
2017/11/04,07:10,0.910,1.452,0.913,1.715,1.174,0.503,0.909,0.847,��,3.5,��
2017/11/04,07:20,0.912,1.448,0.913,1.716,1.175,0.502,0.910,0.847,��,4.0,��
2017/11/04,07:30,0.911,1.450,0.912,1.716,1.176,0.502,0.910,0.847,��,3.9,��
2017/11/04,07:40,0.910,1.453,0.912,1.715,1.176,0.502,0.912,0.848,���k��,3.6,��
2017/11/04,07:50,0.912,1.452,0.913,1.719,1.176,0.501,0.912,0.847,�k��,3.0,��
2017/11/04,08:00,0.911,1.452,0.914,1.719,1.176,0.504,0.910,0.848,�k�k��,3.6,��
2017/11/04,08:10,0.909,1.453,0.915,1.718,1.176,0.503,0.912,0.849,�k�k��,4.4,��
2017/11/04,08:20,0.911,1.451,0.913,1.718,1.180,0.504,0.912,0.848,�k��,4.8,��
2017/11/04,08:30,0.912,1.453,0.914,1.720,1.175,0.502,0.911,0.849,�k��,5.7,��
2017/11/04,08:40,0.910,1.452,0.914,1.717,1.176,0.504,0.910,0.846,�k��,6.3,��
2017/11/04,08:50,0.911,1.452,0.913,1.722,1.178,0.503,0.909,0.850,�k��,6.6,��
2017/11/04,09:00,0.912,1.450,0.916,1.721,1.177,0.502,0.910,0.849,�k��,5.6,��
2017/11/04,09:10,0.912,1.453,0.915,1.716,1.178,0.502,0.908,0.849,���k��,6.6,��
2017/11/04,09:20,0.912,1.451,0.916,1.717,1.177,0.502,0.907,0.848,�k��,8.3,��
2017/11/04,09:30,0.912,1.452,0.916,1.719,1.177,0.504,0.910,0.847,�k��,7.8,��
2017/11/04,09:40,0.912,1.452,0.915,1.718,1.179,0.501,0.910,0.849,�k��,9.0,��
2017/11/04,09:50,0.911,1.448,0.916,1.720,1.180,0.501,0.910,0.846,�k��,8.3,��
2017/11/04,10:00,0.911,1.446,0.916,1.722,1.179,0.500,0.907,0.848,�k��,7.2,��
2017/11/04,10:10,0.909,1.447,0.913,1.722,1.175,0.501,0.909,0.846,�k��,7.2,��
2017/11/04,10:20,0.909,1.447,0.914,1.724,1.174,0.501,0.910,0.845,�k�k��,4.4,��
2017/11/04,10:30,0.909,1.450,0.915,1.719,1.178,0.500,0.911,0.847,�k�k��,3.6,��
2017/11/04,10:40,0.911,1.448,0.915,1.720,1.177,0.502,0.908,0.846,�k�k��,5.4,��
2017/11/04,10:50,0.912,1.451,0.916,1.720,1.177,0.502,0.907,0.849,�k�k��,5.0,�L
2017/11/04,11:00,0.912,1.454,0.915,1.720,1.180,0.502,0.910,0.847,�k�k��,3.3,�L
2017/11/04,11:10,0.913,1.453,0.915,1.724,1.176,0.502,0.909,0.847,�k�k��,3.3,��
2017/11/04,11:20,0.913,1.454,0.916,1.721,1.180,0.502,0.909,0.848,�k�k��,3.0,��
2017/11/04,11:30,0.914,1.455,0.916,1.721,1.180,0.502,0.910,0.849,�k�k��,2.5,��
2017/11/04,11:40,0.913,1.458,0.916,1.720,1.179,0.504,0.910,0.849,�k,2.5,��
2017/11/04,11:50,0.915,1.456,0.916,1.723,1.180,0.503,0.909,0.847,�k�k��,2.8,��
2017/11/04,12:00,0.912,1.456,0.916,1.722,1.181,0.503,0.910,0.847,�k�k��,2.6,��
2017/11/04,12:10,0.911,1.457,0.917,1.720,1.178,0.502,0.909,0.847,�k,2.3,��
2017/11/04,12:20,0.911,1.456,0.918,1.723,1.177,0.502,0.910,0.848,�k,2.8,��
2017/11/04,12:30,0.910,1.457,0.915,1.723,1.178,0.502,0.909,0.847,�k,2.8,��
2017/11/04,12:40,0.910,1.455,0.915,1.725,1.178,0.501,0.910,0.844,�k�k��,4.3,��
2017/11/04,12:50,0.912,1.457,0.918,1.722,1.180,0.503,0.911,0.847,�k�k��,5.4,��
2017/11/04,13:00,0.914,1.454,0.917,1.722,1.180,0.502,0.911,0.847,�k�k��,7.1,��
2017/11/04,13:10,0.911,1.454,0.917,1.725,1.177,0.503,0.911,0.845,�k��,6.7,��
2017/11/04,13:20,0.913,1.453,0.917,1.724,1.178,0.501,0.910,0.848,�k��,7.1,��
2017/11/04,13:30,0.913,1.455,0.918,1.722,1.180,0.503,0.912,0.847,�k�k��,6.3,��
2017/11/04,13:40,0.911,1.458,0.916,1.725,1.181,0.500,0.911,0.847,�k,5.8,��
2017/11/04,13:50,0.913,1.456,0.914,1.723,1.179,0.501,0.909,0.846,�k,6.4,�L
2017/11/04,14:00,0.912,1.454,0.917,1.722,1.181,0.501,0.909,0.848,�k,6.6,�L
2017/11/04,14:10,0.913,1.456,0.915,1.722,1.183,0.502,0.908,0.847,�k,8.2,�L
2017/11/04,14:20,0.913,1.457,0.920,1.724,1.180,0.504,0.909,0.847,�k�k��,8.0,�L
2017/11/04,14:30,0.912,1.458,0.919,1.723,1.181,0.505,0.909,0.848,�k�k��,8.8,�L
2017/11/04,14:40,0.915,1.458,0.922,1.725,1.183,0.507,0.909,0.848,�k��,6.0,�L
2017/11/04,14:50,0.917,1.458,0.925,1.722,1.181,0.508,0.909,0.851,�k��,5.2,�L
2017/11/04,15:00,0.912,1.458,0.923,1.724,1.179,0.508,0.908,0.848,�k��,4.2,�L
2017/11/04,15:10,0.916,1.451,0.922,1.721,1.179,0.509,0.907,0.847,�k�k��,4.9,�L
2017/11/04,15:20,0.913,1.449,0.920,1.721,1.176,0.511,0.910,0.848,�k�k��,6.5,�L
2017/11/04,15:30,0.911,1.446,0.919,1.717,1.175,0.510,0.906,0.847,�k�k��,6.9,�L
2017/11/04,15:40,0.910,1.441,0.917,1.714,1.173,0.511,0.906,0.849,�k�k��,5.5,�L
2017/11/04,15:50,0.909,1.444,0.919,1.713,1.173,0.508,0.907,0.847,�k�k��,6.0,�L
2017/11/04,16:00,0.908,1.441,0.916,1.714,1.173,0.508,0.908,0.847,�k�k��,5.3,�L
2017/11/04,16:10,0.908,1.442,0.915,1.713,1.169,0.506,0.905,0.844,�k�k��,4.9,�L
2017/11/04,16:20,0.909,1.438,0.916,1.710,1.169,0.508,0.905,0.845,�k�k��,5.3,�L
2017/11/04,16:30,0.909,1.440,0.918,1.708,1.170,0.507,0.906,0.845,�k�k��,7.0,�L
2017/11/04,16:40,0.906,1.438,0.915,1.708,1.170,0.507,0.907,0.845,�k�k��,5.7,�L
2017/11/04,16:50,0.908,1.438,0.913,1.708,1.165,0.507,0.903,0.845,�k�k��,5.5,�L
2017/11/04,17:00,0.905,1.439,0.913,1.706,1.166,0.505,0.905,0.844,�k�k��,4.9,��
2017/11/04,17:10,0.902,1.434,0.910,1.705,1.165,0.505,0.904,0.844,�k�k��,5.5,�L
2017/11/04,17:20,0.899,1.435,0.908,1.702,1.166,0.502,0.906,0.842,�k�k��,6.2,��
2017/11/04,17:30,0.899,1.433,0.907,1.701,1.162,0.501,0.904,0.842,�k��,5.6,�L
2017/11/04,17:40,0.898,1.428,0.907,1.700,1.162,0.502,0.906,0.843,�k��,6.3,�L
2017/11/04,17:50,0.898,1.430,0.906,1.703,1.161,0.500,0.904,0.842,�k�k��,3.8,�L
2017/11/04,18:00,0.897,1.431,0.904,1.700,1.161,0.501,0.904,0.841,�k�k��,4.4,�L
2017/11/04,18:10,0.897,1.428,0.904,1.701,1.161,0.498,0.905,0.844,�k�k��,4.5,��
2017/11/04,18:20,0.895,1.426,0.903,1.696,1.158,0.498,0.903,0.842,�k�k��,3.6,��
2017/11/04,18:30,0.897,1.425,0.904,1.698,1.158,0.497,0.904,0.842,�k�k��,4.3,��
2017/11/04,18:40,0.893,1.424,0.903,1.699,1.158,0.498,0.904,0.842,�k�k��,6.4,��
2017/11/04,18:50,0.895,1.425,0.903,1.697,1.158,0.498,0.902,0.841,�k�k��,7.0,�L
2017/11/04,19:00,0.894,1.426,0.901,1.699,1.156,0.496,0.905,0.841,�k�k��,4.6,��
2017/11/04,19:10,0.894,1.427,0.902,1.698,1.157,0.495,0.903,0.838,�k��,1.5,��
2017/11/04,19:20,0.892,1.427,0.901,1.696,1.159,0.496,0.903,0.841,�k��,1.9,��
2017/11/04,19:30,0.893,1.425,0.901,1.697,1.156,0.495,0.904,0.840,�k�k��,3.8,��
2017/11/04,19:40,0.892,1.426,0.901,1.699,1.154,0.494,0.903,0.841,�k�k��,5.0,��
2017/11/04,19:50,0.895,1.426,0.902,1.695,1.156,0.495,0.903,0.842,�k�k��,4.4,��
2017/11/04,20:00,0.892,1.425,0.901,1.699,1.157,0.496,0.902,0.840,�k�k��,5.7,��
2017/11/04,20:10,0.892,1.426,0.903,1.697,1.155,0.497,0.903,0.839,�k�k��,8.4,��
2017/11/04,20:20,0.894,1.426,0.900,1.697,1.156,0.494,0.904,0.839,�k�k��,8.6,��
2017/11/04,20:30,0.894,1.425,0.902,1.695,1.154,0.494,0.905,0.841,�k�k��,8.0,��
2017/11/04,20:40,0.893,1.426,0.901,1.695,1.157,0.494,0.904,0.840,�k�k��,7.2,��
2017/11/04,20:50,0.892,1.425,0.900,1.696,1.158,0.494,0.903,0.841,�k��,9.2,��
2017/11/04,21:00,0.892,1.425,0.903,1.699,1.157,0.495,0.902,0.841,�k��,8.1,��
2017/11/04,21:10,0.892,1.427,0.902,1.698,1.159,0.496,0.904,0.840,�k��,6.1,��
2017/11/04,21:20,0.892,1.426,0.901,1.697,1.158,0.496,0.903,0.841,�k��,6.6,��
2017/11/04,21:30,0.891,1.423,0.901,1.701,1.158,0.495,0.904,0.842,�k��,5.5,��
2017/11/04,21:40,0.893,1.426,0.901,1.699,1.157,0.495,0.904,0.841,�k�k��,5.6,��
2017/11/04,21:50,0.892,1.425,0.904,1.698,1.158,0.494,0.902,0.839,�k�k��,5.6,��
2017/11/04,22:00,0.892,1.426,0.900,1.699,1.158,0.495,0.902,0.841,�k��,6.4,��
2017/11/04,22:10,0.893,1.428,0.900,1.698,1.158,0.495,0.901,0.840,�k��,6.0,��
2017/11/04,22:20,0.891,1.426,0.899,1.699,1.159,0.495,0.901,0.838,�k�k��,4.5,��
2017/11/04,22:30,0.891,1.426,0.899,1.700,1.158,0.495,0.905,0.840,�k�k��,4.9,��
2017/11/04,22:40,0.891,1.426,0.902,1.699,1.155,0.493,0.901,0.840,�k��,5.0,��
2017/11/04,22:50,0.894,1.427,0.901,1.697,1.157,0.494,0.902,0.840,�k��,4.5,��
2017/11/04,23:00,0.892,1.426,0.900,1.698,1.158,0.494,0.901,0.839,�k��,3.9,��
2017/11/04,23:10,0.891,1.425,0.899,1.701,1.159,0.494,0.902,0.840,�k��,3.1,��
2017/11/04,23:20,0.892,1.425,0.900,1.696,1.158,0.494,0.901,0.841,�k��,3.0,��
2017/11/04,23:30,0.892,1.426,0.900,1.697,1.156,0.494,0.901,0.842,�k��,3.2,��
2017/11/04,23:40,0.891,1.426,0.901,1.698,1.157,0.493,0.901,0.840,���k��,3.3,��
2017/11/04,23:50,0.891,1.426,0.900,1.696,1.156,0.495,0.901,0.840,�k��,3.4,��
